Location: Overspoor
(51.4747°N, 5.6641°E)
Time: 15:37:10
(UTC+02:00)

RS-15 - Pass Details

Date: 29 June 2022
Orbit: 1881 x 2163 km, 64.8° (Epoch: 13 August)

Event Time Altitude Azimuth Distance (km) Brightness Sun altitude
Rises 02:54:13 0° 321° (NW) 5,701 11.0 -13.6°
Reaches altitude 10° 02:58:00 10° 314° (NW) 4,691 10.4 -13.4°
Maximum altitude 03:08:50 39° 252° (WSW) 2,908 8.6 -12.8°
Enters shadow 03:18:11 14° 193° (SSW) 4,246 9.1 -12.3°
